Location: Golavabuka
(46.4667°N, 15.1500°E)
Time: 01:40:15
(UTC+00:00)

Daily predictions for brighter satellites

Satellite Brightness Start Highest point End
(mag) Time Altitude Azimuth Time Altitude Azimuth Time Altitude Azimuth
Cosmos 1674 4.4 00:01:44 10° NNE 00:04:55 25° ENE 00:05:00 25° ENE
Cosmos 773 Rocket 3.9 00:00:30 10° NNW 00:05:41 76° ENE 00:06:13 68° ESE
Cosmos 1464 Rocket 4.2 00:08:47 49° WSW 00:09:55 55° WNW 00:16:02 10° N
Cosmos 1536 Rocket 3.8 00:07:09 10° N 00:11:19 64° ENE 00:11:19 64° ENE
Cosmos 2219 Rocket 2.7 00:06:14 10° NW 00:11:13 45° W 00:11:13 45° W
Lacrosse 4 Rocket 2.7 00:13:01 32° WNW 00:13:15 32° NW 00:17:04 10° NNE
IRAS Rocket 4.5 00:14:44 42° SE 00:16:31 66° ENE 00:22:03 10° N
Cosmos 1354 Rocket 4.3 00:16:38 52° W 00:17:17 55° WNW 00:22:33 10° NNE
SL-4 R/B 3.0 00:22:19 37° NNE 00:22:19 37° NNE 00:25:09 10° E
SL-16 R/B 3.7 00:18:04 10° NNW 00:23:17 35° NE 00:28:28 10° ESE
COSMOS 2428 3.4 00:24:27 10° NW 00:29:12 37° W 00:29:12 37° W
SL-16 R/B 2.5 00:28:37 40° SSE 00:31:06 82° ENE 00:37:24 10° NNW
Nadezhda 4 Rocket 4.3 00:28:17 10° NNW 00:34:18 48° W 00:35:18 44° WSW
BREEZE-M TANK 3.1 00:36:07 44° ESE 00:36:07 44° ESE 00:39:33 10° E
NPP 4.0 00:30:12 10° NNE 00:35:31 56° E 00:36:53 44° SSE
CZ-2D R/B 2.3 00:31:16 10° NNE 00:36:45 67° ESE 00:38:05 50° SSE
USA 267 4.2 00:30:43 10° E 00:36:56 48° NNE 00:43:09 10° NW
Cosmos 2034 Rocket 4.4 00:35:41 41° WSW 00:37:06 48° WNW 00:43:12 10° N
GEOS 3 Rocket 3.9 00:35:49 10° NE 00:41:11 64° NW 00:42:45 44° WSW
Okean 2 Rocket 3.7 00:41:46 44° WNW 00:41:46 44° WNW 00:46:02 10° N
Cosmos 1428 Rocket 4.4 00:37:28 10° N 00:43:46 89° W 00:46:04 42° S
KORONAS-FOTON 4.0 00:40:08 10° N 00:43:44 68° ENE 00:43:44 68° ENE
AQUA 4.3 00:39:53 10° NNE 00:44:33 52° E 00:45:34 44° SE
ADEOS II 3.3 00:40:27 10° NNE 00:45:12 33° E 00:47:27 24° SE
Cosmos 1092 Rocket 4.0 00:40:21 10° NNW 00:46:30 62° W 00:48:01 48° SW
Cosmos 2297 Rocket 2.1 00:45:36 54° S 00:46:54 78° ESE 00:52:35 10° NNE
Cosmos 2219 3.1 00:45:50 56° SSW 00:47:07 89° ESE 00:52:46 10° NNE
Helios 1B rocket 4.1 00:45:32 10° NNW 00:48:45 23° WNW 00:48:50 23° WNW
Cosmos 1980 3.7 00:43:19 10° NNW 00:48:55 61° WSW 00:49:51 53° SSW
Cosmos 2333 Rocket 3.7 00:44:52 10° NW 00:48:11 21° W 00:48:11 21° W
Uosat 12 SS-18 rocket 4.2 00:48:34 65° S 00:49:15 78° SE 00:53:47 10° NE
IRS-1D 4.4 00:44:48 10° NNE 00:49:35 41° E 00:51:26 30° SE
Cosmos 1777 Rocket 4.0 00:49:00 56° SW 00:50:01 73° WNW 00:55:20 10° NNE
Cosmos 1766 3.7 00:51:10 52° ESE 00:51:24 53° E 00:55:13 10° NNE
UNK 3.6 00:52:22 66° SW 00:52:50 72° WSW 00:57:32 10° NNW
Cosmos 44 Rocket 4.4 00:51:56 10° NW 00:55:08 30° W 00:55:08 30° W
Cosmos 2237 Rocket 2.3 00:53:26 10° NW 00:58:56 55° WSW 00:59:52 49° SW
Okean 1 Rocket 2.8 01:01:02 70° SSW 01:01:30 83° W 01:05:53 10° N
CZ-4C R/B 3.8 01:04:18 41° NW 01:04:18 41° NW 01:06:54 10° NNW
Cosmos 1626 2.9 00:59:53 10° N 01:03:29 47° ENE 01:04:26 37° ESE
CZ-4B R/B 3.6 00:58:45 10° NNE 01:03:30 61° ESE 01:04:54 41° SSE
Cosmos 923 Rocket 4.1 01:01:46 10° NNW 01:07:08 75° ENE 01:10:51 20° SSE
IKONOS-2 4.5 01:10:35 60° WSW 01:10:51 61° WSW 01:15:03 10° NNW
Cosmos 2098 Rocket 4.3 01:08:52 10° N 01:13:27 49° ENE 01:19:11 10° SSE
ATLAS 3B CENTAUR R/B 4.5 01:13:44 26° SSW 01:13:58 26° S 01:20:26 10° SE
Cosmos 158 Rocket 4.3 01:10:06 10° NNW 01:15:28 68° ENE 01:20:51 10° SSE
Meteor 2-19 Rocket 4.4 01:17:55 10° N 01:24:08 88° E 01:28:27 21° S
Cosmos 1805 3.5 01:24:26 48° W 01:24:44 50° WNW 01:28:32 10° N
SJ 16-02 1.3 01:25:10 45° S 01:26:29 79° ESE 01:30:56 10° NNE
SL-14 R/B 3.2 01:23:13 10° N 01:27:11 85° ENE 01:28:23 43° SSE
DNEPR-1 R/B 3.9 01:22:42 10° NW 01:28:23 61° WSW 01:31:06 25° SSE
ERBS 2.1 01:25:29 10° NW 01:28:48 88° SSW 01:32:05 10° SE
IRS-P3 4.3 01:28:10 10° NNE 01:33:32 67° ESE 01:36:40 25° S
Cosmos 2227 Rocket 2.5 01:33:34 32° WSW 01:36:03 55° WNW 01:41:38 10° NNE
Cosmos 1455 Rocket 3.2 01:34:24 30° S 01:36:28 69° E 01:40:55 10° NNE
Resurs 1-4 Rocket 2.9 01:32:31 10° N 01:37:23 39° WNW 01:39:24 28° WSW
Cosmos 1758 4.1 01:37:38 23° SSE 01:39:53 49° E 01:43:47 10° NNE
Cosmos 2180 Rocket 4.4 01:36:43 30° SSW 01:39:56 70° W 01:46:05 10° N
Cosmos 1674 4.2 01:37:21 10° NW 01:39:47 22° WNW 01:39:47 22° WNW
Cosmos 1733 3.7 01:42:54 39° WSW 01:43:32 43° WNW 01:47:13 10° N
Cosmos 1892 Rocket 3.5 01:39:35 10° NNW 01:44:03 68° W 01:46:08 30° S
USA 215 3.2 01:40:38 10° NE 01:47:13 88° NW 01:51:29 24° SW
Cosmos 2279 Rocket 4.3 01:44:46 28° SW 01:47:45 49° WNW 01:53:46 10° N
Cosmos 1461 3.1 01:47:03 33° SSW 01:48:53 68° ESE 01:53:25 10° NE
COBE Rocket 4.1 01:47:33 33° SW 01:49:06 44° W 01:53:33 10° NNW
CZ-2D R/B 4.4 01:47:41 10° NNE 01:51:34 43° E 01:54:31 16° SSE
FALCON 9 DEB 3.7 01:51:45 10° NW 01:55:12 59° NNE 01:58:39 10° ESE
Cosmos 1340 Rocket 2.8 01:54:19 26° S 01:56:30 77° E 02:00:29 10° NNE
Cosmos 2082 3.8 01:53:29 27° SW 01:56:33 64° WNW 02:02:09 10° NNE
Cosmos 2112 Rocket 4.0 01:56:11 10° NNW 02:01:19 59° WSW 02:06:25 10° S
SL-4 R/B 1.4 01:58:12 10° WNW 02:01:36 65° SSW 02:04:59 10° SE
ERS-2 4.1 01:58:33 10° SE 02:01:46 30° ENE 02:05:01 10° N
Cosmos 1953 3.3 01:59:20 12° SSE 02:02:53 44° E 02:06:45 10° NNE
Meteor 1-24 Rocket 4.1 02:00:50 10° NNW 02:05:56 40° W 02:08:55 22° SSW
Cosmos 1726 2.7 02:04:07 15° S 02:06:59 53° E 02:10:35 10° NNE
SL-16 R/B 2.6 02:02:09 10° NW 02:07:29 42° WSW 02:12:33 11° S
Cosmos 1937 Rocket 3.5 02:06:56 20° SSW 02:10:44 86° ESE 02:16:06 10° NNE
NOSS 2-3 (E) 4.4 02:10:32 17° S 02:13:29 45° ESE 02:18:09 10° NE
H-2A R/B 2.6 02:09:35 10° SSE 02:13:37 56° ENE 02:17:40 10° N
ARIANE 5 R/B 2.5 02:08:40 10° NNE 02:13:54 79° WNW 02:18:02 17° SSW
Cosmos 1898 Rocket 3.6 02:11:41 22° SW 02:15:07 66° WNW 02:20:21 10° NNE
SL-16 R/B 3.9 02:13:43 17° WSW 02:15:24 18° W 02:19:35 10° NW
CZ-2D R/B 3.8 02:12:16 10° NNW 02:16:18 21° WNW 02:19:24 14° W
IDEFIX/ARIANE 42P 2.7 02:11:37 10° NNE 02:16:50 75° ESE 02:21:55 11° S
Cosmos 1680 Rocket 4.1 02:14:13 10° NW 02:18:58 36° WSW 02:22:58 14° SSW
USA 267 3.2 02:13:11 10° SE 02:19:43 77° SW 02:26:18 10° NW
NOSS 3-1 (C) 3.3 02:17:24 20° SW 02:21:24 88° NW 02:27:49 10° NE
Cosmos 1544 Rocket 3.8 02:20:01 19° SSW 02:23:01 56° WNW 02:27:25 10° N
ADEOS II 2.9 02:20:07 10° N 02:24:55 37° WNW 02:28:24 17° SW
CZ-4C R/B 3.0 02:23:07 10° SSE 02:26:18 71° ENE 02:29:35 10° N
Cosmos 1607 4.5 02:20:36 10° NW 02:26:27 37° WSW 02:32:17 10° S
Cosmos 990 Rocket 4.4 02:23:19 19° SW 02:26:53 49° WNW 02:31:55 10° NNE
Timation 1 Rocket 4.3 02:22:56 16° SSW 02:27:51 88° WNW 02:33:52 10° NNE
Cosmos 2263 Rocket 2.5 02:23:54 11° SSW 02:29:14 64° ESE 02:34:45 10° NNE
CZ-4B R/B 4.3 02:27:31 10° ESE 02:30:01 20° ENE 02:32:28 10° NNE
Cosmos 2297 Rocket 3.8 02:27:24 10° W 02:31:36 22° NW 02:35:57 10° N
Cosmos 372 Rocket 4.3 02:28:30 10° S 02:33:37 65° ESE 02:38:50 10° NNE
Meteor 2-10 4.1 02:29:20 10° SSW 02:34:42 79° WNW 02:40:21 10° N
Cosmos 1703 4.1 02:30:47 10° N 02:34:43 54° ENE 02:38:35 10° SSE
NOSS 2-3 (D) 3.9 02:33:37 14° SSW 02:37:10 67° SE 02:42:06 10° NE
Cosmos 1626 4.1 02:36:38 10° WNW 02:38:18 13° W 02:38:57 12° W
Meteor 1-28 Rocket 4.3 02:36:22 16° SW 02:38:32 27° W 02:41:49 10° NW
Cosmos 1602 Rocket 3.5 02:37:40 10° NNW 02:42:00 63° W 02:46:17 10° S
Cosmos 1470 4.0 02:41:43 15° WSW 02:44:07 26° WNW 02:47:29 10° NNW
CZ-2C R/B 3.4 02:40:40 10° NNE 02:45:02 43° E 02:49:25 10° S
Cosmos 1603 3.7 02:41:27 10° NNW 02:47:11 72° WSW 02:52:52 10° SSE
SL-08 R/B 4.4 02:43:55 11° SSW 02:47:53 27° W 02:52:05 10° NW
Meteor 2-21 Rocket 4.4 02:42:07 10° NNW 02:48:09 69° W 02:54:09 10° S
Meteor 2-16 Rocket 4.4 02:45:24 10° NNW 02:51:34 77° W 02:57:42 10° S
USA 229 DEB 3.8 02:48:34 12° SW 02:54:42 69° NW 03:01:37 10° NE
USA 229 3.8 02:48:40 12° SW 02:54:46 69° NW 03:01:41 10° NE
SL-08 R/B 4.5 02:54:27 10° N 03:00:40 83° W 03:06:54 10° S
Cosmos 1726 Rocket 4.4 02:59:17 10° S 03:03:36 54° E 03:07:59 10° NNE
Cosmos 2298 Rocket 4.1 02:58:29 10° SSW 03:03:48 86° ESE 03:09:10 10° NNE
ERBS 4.3 03:04:10 10° WSW 03:04:31 10° WSW 03:04:53 10° SW
NOSS 2-3 (C) 3.8 03:01:10 10° SW 03:05:27 70° NW 03:10:35 10° NE
SJ 16-02 3.5 03:03:18 10° W 03:05:40 14° NW 03:08:03 10° NNW
NOSS 3-1 (A) 3.4 03:00:15 10° SW 03:05:45 74° NW 03:12:14 10° NE
ALOS 4.4 03:04:05 10° NE 03:08:08 28° E 03:12:09 10° SSE
ADEOS Rocket 4.2 03:03:29 10° SSE 03:10:55 64° ENE 03:18:37 10° N
MSX 4.0 03:07:07 10° N 03:12:45 57° WNW 03:18:22 10° SSW
PSLV R/B 3.6 03:09:28 10° NNE 03:13:52 82° WNW 03:18:14 10° SSW
Cosmos 1943 3.3 03:08:55 10° NW 03:14:22 52° WSW 03:19:47 10° S
